Date String (YYYY-MM-DD hh:mm:ss) UTC,Instrument flags,Ambient pressure (hPa),Sample flow (lpm),Bypass flow (lpm),Sample temperature (°C),Ambient temperature (°C),ASC tube jacket temperature (°C),LED temperature (°C),Box temperature (°C),Sample RH (%),Span deviation,Mass concentration (μg/m³),Mass concentration (μg/m³),Mass concentration (μg/m³)
DateTimeUTC,F1_M11,P_M11,Q1_M11,Q2_M11,T1_M11,T2_M11,T3_M11,T4_M11,T5_M11,U1_M11,ZSPAN_M11,X2_M11,X0_M11,X1_M11
2022-08-18 09:00:00,,0831.0,5.01,0.00,30.0,29.0,00.0,38.7,32.0,18.9,0000.0,0004.71,0010.23,0004.40
2022-08-18 09:01:00,,0831.0,5.00,0.00,30.1,29.0,00.0,38.8,32.0,19.0,0000.0,0004.74,0010.17,0004.42
2022-08-18 09:02:00,,0831.0,5.01,0.00,30.1,29.0,00.0,38.8,32.0,18.8,0000.0,0004.78,0009.55,0004.44
2022-08-18 09:03:00,,0831.0,5.00,0.00,30.1,29.0,00.0,38.8,32.0,18.4,0000.0,0004.78,0009.45,0004.45
2022-08-18 09:04:00,,0831.0,5.01,0.00,30.1,29.1,00.0,38.8,32.0,18.0,0000.0,0004.76,0009.33,0004.44
2022-08-18 09:05:00,,0831.0,4.99,0.00,30.1,29.1,00.0,38.8,32.0,17.9,0000.0,0004.76,0008.76,0004.44
2022-08-18 09:06:00,,0831.0,5.01,0.00,30.1,29.1,00.0,38.8,32.0,18.0,0000.0,0004.79,0008.52,0004.44
2022-08-18 09:07:00,,0831.0,4.99,0.00,30.1,29.1,00.0,38.9,32.0,17.8,0000.0,0004.77,0008.63,0004.43
2022-08-18 09:08:00,,0831.0,5.00,0.00,30.1,29.1,00.0,38.9,32.0,18.0,0000.0,0004.72,0008.60,0004.40
2022-08-18 09:09:00,,0831.0,5.01,0.00,30.1,29.1,00.0,38.9,32.0,18.4,0000.0,0004.71,0008.97,0004.40
2022-08-18 09:10:00,,0831.1,5.00,0.00,30.2,29.1,00.0,38.9,32.0,18.4,0000.0,0004.70,0009.17,0004.39
2022-08-18 09:11:00,,0831.1,5.00,0.00,30.2,29.1,00.0,38.9,32.0,18.5,0000.0,0004.74,0008.91,0004.41
2022-08-18 09:12:00,,0831.2,5.01,0.00,30.2,29.1,00.0,38.9,32.1,18.6,0000.0,0004.74,0008.90,0004.41
2022-08-18 09:13:00,,0831.2,5.00,0.00,30.2,29.1,00.0,38.9,32.1,18.8,0000.0,0004.75,0008.89,0004.42
2022-08-18 09:14:00,,0831.2,4.99,0.00,30.2,29.1,00.0,38.9,32.1,18.9,0000.0,0004.78,0008.93,0004.44
2022-08-18 09:15:00,,0831.2,4.99,0.00,30.2,29.1,00.0,38.9,32.1,18.9,0000.0,0004.84,0009.04,0004.49
2022-08-18 09:16:00,,0831.2,5.00,0.00,30.2,29.2,00.0,39.0,32.1,19.1,0000.0,0004.88,0009.03,0004.52
2022-08-18 09:17:00,,0831.2,5.01,0.00,30.2,29.2,00.0,39.0,32.1,19.5,0000.0,0004.85,0008.74,0004.52
2022-08-18 09:18:00,,0831.1,5.01,0.00,30.3,29.2,00.0,39.0,32.1,20.1,0000.0,0004.85,0008.40,0004.54
2022-08-18 09:19:00,,0831.2,5.01,0.00,30.3,29.2,00.0,39.0,32.1,20.5,0000.0,0004.94,0008.35,0004.58
2022-08-18 09:20:00,,0831.2,5.00,0.00,30.3,29.3,00.0,39.0,32.1,20.4,0000.0,0004.97,0008.18,0004.61
2022-08-18 09:21:00,,0831.2,5.00,0.00,30.3,29.3,00.0,39.0,32.2,20.4,0000.0,0004.99,0007.72,0004.62
2022-08-18 09:22:00,,0831.1,5.00,0.00,30.3,28.7,00.0,39.0,32.0,20.3,0000.0,0005.01,0007.83,0004.61
2022-08-18 09:23:00,,0831.1,5.01,0.00,30.2,27.9,00.0,38.9,31.7,20.1,0000.0,0005.05,0007.96,0004.61
2022-08-18 09:24:00,,0831.1,4.99,0.00,30.1,27.7,00.0,38.9,31.7,20.1,0000.0,0005.03,0007.95,0004.61
2022-08-18 09:25:00,,0831.1,5.00,0.00,30.0,27.7,00.0,38.8,31.6,20.3,0000.0,0005.03,0007.92,0004.61
2022-08-18 09:26:00,,0831.0,5.01,0.00,29.9,27.7,00.0,38.8,31.6,20.3,0000.0,0005.02,0007.87,0004.61
2022-08-18 09:27:00,,0831.1,4.99,0.00,29.9,27.9,00.0,38.8,31.6,20.3,0000.0,0005.01,0007.87,0004.60
2022-08-18 09:28:00,,0831.0,5.00,0.00,29.9,28.0,00.0,38.8,31.7,20.4,0000.0,0005.05,0007.94,0004.61
2022-08-18 09:29:00,,0831.1,5.01,0.00,29.9,28.1,00.0,38.8,31.7,20.4,0000.0,0005.07,0007.97,0004.62
2022-08-18 09:30:00,,0831.1,5.00,0.00,29.9,28.2,00.0,38.7,31.7,20.4,0000.0,0005.04,0007.90,0004.62
2022-08-18 09:31:00,,0831.2,4.99,0.00,29.9,28.3,00.0,38.7,31.7,20.6,0000.0,0005.00,0007.82,0004.61
2022-08-18 09:32:00,,0831.2,5.00,0.00,29.9,28.4,00.0,38.7,31.7,20.5,0000.0,0005.00,0008.13,0004.60
2022-08-18 09:33:00,,0831.2,5.00,0.00,29.9,28.5,00.0,38.7,31.7,20.5,0000.0,0004.99,0008.35,0004.60
2022-08-18 09:34:00,,0831.2,5.01,0.00,29.9,28.6,00.0,38.7,31.8,20.6,0000.0,0004.93,0008.15,0004.60
2022-08-18 09:35:00,,0831.2,4.99,0.00,29.9,28.7,00.0,38.7,31.7,20.6,0000.0,0004.98,0008.24,0004.61
2022-08-18 09:36:00,,0831.2,5.01,0.00,29.9,28.7,00.0,38.7,31.8,20.6,0000.0,0005.00,0008.31,0004.61
2022-08-18 09:37:00,,0831.2,5.01,0.00,29.9,28.8,00.0,38.7,31.8,20.6,0000.0,0005.01,0008.94,0004.61
2022-08-18 09:38:00,,0831.2,5.00,0.00,30.0,28.8,00.0,38.7,31.9,20.6,0000.0,0005.01,0009.76,0004.62
2022-08-18 09:39:00,,0831.2,4.99,0.00,30.0,28.9,00.0,38.7,31.9,20.8,0000.0,0005.00,0009.72,0004.63
2022-08-18 09:40:00,,0831.2,5.01,0.00,30.0,28.9,00.0,38.7,31.9,21.0,0000.0,0005.02,0009.80,0004.63
2022-08-18 09:41:00,,0831.2,5.01,0.00,30.0,28.9,00.0,38.8,31.9,21.0,0000.0,0005.07,0010.07,0004.65
2022-08-18 09:42:00,,0831.2,5.00,0.00,30.0,29.0,00.0,38.8,31.9,20.9,0000.0,0005.07,0010.05,0004.66
2022-08-18 09:43:00,,0831.1,4.99,0.00,30.0,29.0,00.0,38.8,31.9,21.1,0000.0,0005.05,0009.72,0004.68
2022-08-18 09:44:00,,0831.2,5.00,0.00,30.1,29.0,00.0,38.8,32.0,21.1,0000.0,0005.06,0009.33,0004.70
2022-08-18 09:45:00,,0831.2,5.00,0.00,30.1,29.1,00.0,38.8,32.0,21.0,0000.0,0005.08,0009.36,0004.72
2022-08-18 09:46:00,,0831.1,5.00,0.00,30.1,29.1,00.0,38.8,32.0,21.2,0000.0,0005.06,0009.32,0004.72
2022-08-18 09:47:00,,0831.1,5.00,0.00,30.1,29.1,00.0,38.8,32.0,21.2,0000.0,0005.06,0009.63,0004.74
2022-08-18 09:48:00,,0831.0,5.00,0.00,30.1,29.1,00.0,38.8,32.0,21.0,0000.0,0005.07,0009.36,0004.75
2022-08-18 09:49:00,,0831.0,5.00,0.00,30.1,29.1,00.0,38.9,32.0,20.9,0000.0,0005.06,0008.28,0004.75
2022-08-18 09:50:00,,0831.0,4.99,0.00,30.2,29.2,00.0,38.9,32.1,20.9,0000.0,0005.07,0008.26,0004.76
2022-08-18 09:51:00,,0831.0,4.99,0.00,30.2,29.2,00.0,38.9,32.1,21.1,0000.0,0005.08,0008.32,0004.77
2022-08-18 09:52:00,,0831.0,5.00,0.00,30.2,29.2,00.0,38.9,32.1,20.9,0000.0,0005.07,0008.09,0004.78
2022-08-18 09:53:00,,0831.0,5.00,0.00,30.2,29.2,00.0,38.9,32.1,20.1,0000.0,0005.08,0008.09,0004.77
2022-08-18 09:54:00,,0831.0,5.00,0.00,30.2,29.2,00.0,38.9,32.1,19.7,0000.0,0005.09,0008.14,0004.76
2022-08-18 09:55:00,,0831.1,5.00,0.00,30.2,29.2,00.0,39.0,32.1,19.6,0000.0,0005.11,0008.24,0004.75
2022-08-18 09:56:00,,0831.0,5.00,0.00,30.2,29.2,00.0,39.0,32.1,19.7,0000.0,0005.11,0008.27,0004.74
2022-08-18 09:57:00,,0831.0,5.00,0.00,30.2,28.9,00.0,38.9,32.0,19.7,0000.0,0005.09,0008.19,0004.72
2022-08-18 09:58:00,,0831.0,5.00,0.00,30.2,28.0,00.0,38.9,31.7,20.0,0000.0,0005.06,0007.87,0004.71
2022-08-18 09:59:00,,0831.0,4.99,0.00,30.1,27.6,00.0,38.9,31.7,19.7,0000.0,0005.08,0007.70,0004.72
